Time,TemperatureF,DewpointF,PressureIn,WindDirection,WindDirectionDegrees,WindSpeedMPH,WindSpeedGustMPH,Humidity,HourlyPrecipIn,Conditions,Clouds,dailyrainin,SoftwareType,DateUTC
2013-06-13 00:01:00,64.0,58.0,29.77,SSE,165,1.0,2.0,81,0.00,,,0.00,,2013-06-13 04:01:00,
2013-06-13 00:12:00,64.0,58.0,29.77,SSE,165,1.0,2.0,81,0.00,,,0.00,,2013-06-13 04:12:00,
2013-06-13 00:23:00,64.0,58.0,29.77,SSE,165,1.0,2.0,81,0.00,,,0.00,,2013-06-13 04:23:00,
2013-06-13 00:33:00,62.0,58.0,29.75,NW,307,0.0,2.0,86,0.00,,,0.00,,2013-06-13 04:33:00,
2013-06-13 00:43:00,62.0,58.0,29.74,NW,307,0.0,0.0,87,0.00,,,0.00,,2013-06-13 04:43:00,
2013-06-13 00:54:00,62.0,58.0,29.74,NW,307,0.0,0.0,87,0.00,,,0.00,,2013-06-13 04:54:00,
2013-06-13 01:02:00,62.0,58.0,29.74,South,179,2.0,3.0,87,0.00,,,0.00,,2013-06-13 05:02:00,
2013-06-13 01:12:00,62.0,58.0,29.73,South,172,0.0,2.0,88,0.00,,,0.00,,2013-06-13 05:12:00,
2013-06-13 01:24:00,62.0,58.0,29.73,South,172,0.0,2.0,88,0.00,,,0.00,,2013-06-13 05:24:00,
2013-06-13 01:33:00,61.0,57.0,29.72,South,174,1.0,2.0,88,0.00,,,0.00,,2013-06-13 05:33:00,
2013-06-13 01:43:00,61.0,57.0,29.72,SSE,165,0.0,2.0,88,0.00,,,0.00,,2013-06-13 05:43:00,
2013-06-13 01:53:00,61.0,57.0,29.72,SSE,165,0.0,2.0,88,0.00,,,0.00,,2013-06-13 05:53:00,
2013-06-13 02:02:00,61.0,57.0,29.72,SSE,165,0.0,2.0,88,0.00,,,0.00,,2013-06-13 06:02:00,
2013-06-13 02:11:00,60.0,58.0,29.72,SSE,167,1.0,2.0,92,0.03,,,0.03,,2013-06-13 06:11:00,
2013-06-13 02:22:00,60.0,58.0,29.72,SSE,167,1.0,2.0,92,0.03,,,0.03,,2013-06-13 06:22:00,
2013-06-13 02:33:00,60.0,58.0,29.72,SSE,166,0.0,5.0,92,0.03,,,0.03,,2013-06-13 06:33:00,
2013-06-13 02:44:00,60.0,58.0,29.71,SSE,153,1.0,2.0,94,0.03,,,0.03,,2013-06-13 06:44:00,
2013-06-13 02:52:00,60.0,58.0,29.71,SSE,153,1.0,2.0,94,0.03,,,0.03,,2013-06-13 06:52:00,
2013-06-13 03:02:00,60.0,59.0,29.70,SSE,156,0.0,1.0,95,0.03,,,0.03,,2013-06-13 07:02:00,
2013-06-13 03:12:00,60.0,59.0,29.69,SSE,162,2.0,4.0,95,0.00,,,0.03,,2013-06-13 07:12:00,
2013-06-13 03:22:00,60.0,59.0,29.69,SSE,162,2.0,4.0,95,0.00,,,0.03,,2013-06-13 07:22:00,
2013-06-13 03:33:00,60.0,59.0,29.67,SSE,157,0.0,3.0,95,0.00,,,0.03,,2013-06-13 07:33:00,
2013-06-13 03:42:00,60.0,59.0,29.67,SE,144,1.0,2.0,95,0.00,,,0.03,,2013-06-13 07:42:00,
2013-06-13 03:52:00,60.0,59.0,29.67,SE,144,1.0,2.0,95,0.00,,,0.03,,2013-06-13 07:52:00,
2013-06-13 04:02:00,59.0,58.0,29.66,SSE,161,1.0,2.0,96,0.00,,,0.03,,2013-06-13 08:02:00,
2013-06-13 04:11:00,59.0,58.0,29.64,SSE,148,2.0,5.0,97,0.01,,,0.04,,2013-06-13 08:11:00,
2013-06-13 04:22:00,59.0,58.0,29.64,SSE,148,2.0,5.0,97,0.01,,,0.04,,2013-06-13 08:22:00,
2013-06-13 04:32:00,59.0,58.0,29.63,SSE,153,0.0,3.0,97,0.03,,,0.06,,2013-06-13 08:32:00,
2013-06-13 04:43:00,59.0,58.0,29.64,SSE,158,1.0,3.0,97,0.09,,,0.12,,2013-06-13 08:43:00,
2013-06-13 04:52:00,59.0,58.0,29.64,SSE,158,1.0,3.0,97,0.09,,,0.12,,2013-06-13 08:52:00,
2013-06-13 05:02:00,59.0,58.0,29.64,SSE,158,3.0,7.0,98,0.16,,,0.19,,2013-06-13 09:02:00,
2013-06-13 05:12:00,60.0,59.0,29.64,SE,135,3.0,9.0,98,0.22,,,0.26,,2013-06-13 09:12:00,
2013-06-13 05:22:00,60.0,59.0,29.64,SE,135,3.0,9.0,98,0.22,,,0.26,,2013-06-13 09:22:00,
2013-06-13 05:32:00,60.0,59.0,29.59,South,178,6.0,17.0,98,0.24,,,0.30,,2013-06-13 09:32:00,
2013-06-13 05:42:00,60.0,59.0,29.59,South,189,7.0,16.0,98,0.20,,,0.32,,2013-06-13 09:42:00,
2013-06-13 05:43:00,60.0,59.0,29.58,SSE,162,6.0,15.0,98,0.13,,,0.32,,2013-06-13 09:43:00,
2013-06-13 05:52:00,60.0,59.0,29.59,South,189,7.0,16.0,98,0.20,,,0.32,,2013-06-13 09:52:00,
2013-06-13 06:01:00,60.0,59.0,29.58,SSE,162,6.0,15.0,98,0.13,,,0.32,,2013-06-13 10:01:00,
2013-06-13 06:12:00,60.0,59.0,29.58,SSE,162,6.0,15.0,98,0.13,,,0.32,,2013-06-13 10:12:00,
2013-06-13 06:22:00,60.0,59.0,29.58,SSE,162,6.0,15.0,98,0.13,,,0.32,,2013-06-13 10:22:00,
2013-06-13 06:33:00,60.0,59.0,29.58,SSE,162,6.0,15.0,98,0.13,,,0.32,,2013-06-13 10:33:00,
2013-06-13 07:02:00,61.0,60.0,29.58,South,171,6.0,13.0,98,0.16,,,0.48,,2013-06-13 11:02:00,
2013-06-13 07:12:00,61.0,60.0,29.57,SSE,165,7.0,14.0,98,0.23,,,0.55,,2013-06-13 11:12:00,
2013-06-13 07:24:00,61.0,60.0,29.57,SSE,165,7.0,14.0,98,0.23,,,0.55,,2013-06-13 11:24:00,
2013-06-13 07:32:00,61.0,60.0,29.55,SSE,166,7.0,13.0,98,0.24,,,0.60,,2013-06-13 11:32:00,
2013-06-13 07:42:00,62.0,61.0,29.53,SSE,162,8.0,15.0,98,0.20,,,0.62,,2013-06-13 11:42:00,
2013-06-13 07:52:00,62.0,61.0,29.53,SSE,162,8.0,15.0,98,0.20,,,0.62,,2013-06-13 11:52:00,
2013-06-13 08:02:00,62.0,61.0,29.50,SSE,165,6.0,15.0,98,0.13,,,0.62,,2013-06-13 12:02:00,
2013-06-13 08:12:00,62.0,61.0,29.50,SSE,165,6.0,15.0,98,0.13,,,0.62,,2013-06-13 12:12:00,
2013-06-13 08:22:00,62.0,61.0,29.49,SSE,163,9.0,21.0,98,0.07,,,0.63,,2013-06-13 12:22:00,
2013-06-13 08:35:00,61.0,60.0,29.49,South,174,10.0,22.0,98,0.03,,,0.63,,2013-06-13 12:35:00,
2013-06-13 08:43:00,61.0,60.0,29.49,SSE,157,6.0,15.0,98,0.01,,,0.63,,2013-06-13 12:43:00,
2013-06-13 08:52:00,61.0,60.0,29.49,SSE,157,6.0,15.0,98,0.01,,,0.63,,2013-06-13 12:52:00,
2013-06-13 09:02:00,61.0,60.0,29.49,SSE,166,10.0,18.0,98,0.01,,,0.63,,2013-06-13 13:02:00,
2013-06-13 09:11:00,61.0,60.0,29.49,SSE,166,10.0,18.0,98,0.01,,,0.63,,2013-06-13 13:11:00,
2013-06-13 09:22:00,61.0,60.0,29.48,South,173,9.0,17.0,98,0.00,,,0.63,,2013-06-13 13:22:00,
2013-06-13 09:33:00,61.0,60.0,29.48,South,173,9.0,17.0,98,0.00,,,0.63,,2013-06-13 13:33:00,
2013-06-13 09:43:00,61.0,60.0,29.48,SE,127,5.0,14.0,98,0.00,,,0.63,,2013-06-13 13:43:00,
2013-06-13 09:53:00,61.0,60.0,29.48,SE,127,5.0,14.0,98,0.00,,,0.63,,2013-06-13 13:53:00,
2013-06-13 10:02:00,61.0,60.0,29.48,SSE,160,6.0,10.0,98,0.00,,,0.63,,2013-06-13 14:02:00,
2013-06-13 10:11:00,61.0,60.0,29.48,SSE,160,6.0,10.0,98,0.00,,,0.63,,2013-06-13 14:11:00,
2013-06-13 10:22:00,61.0,60.0,29.47,SE,134,6.0,14.0,98,0.00,,,0.63,,2013-06-13 14:22:00,
2013-06-13 10:33:00,61.0,60.0,29.47,SSE,164,6.0,17.0,98,0.00,,,0.63,,2013-06-13 14:33:00,
2013-06-13 10:43:00,61.0,60.0,29.45,SSE,158,8.0,16.0,98,0.00,,,0.63,,2013-06-13 14:43:00,
2013-06-13 10:53:00,61.0,60.0,29.45,SSE,158,8.0,16.0,98,0.00,,,0.63,,2013-06-13 14:53:00,
2013-06-13 11:02:00,62.0,61.0,29.44,South,187,4.0,16.0,98,0.00,,,0.63,,2013-06-13 15:02:00,
2013-06-13 11:12:00,62.0,61.0,29.43,South,187,6.0,12.0,98,0.00,,,0.63,,2013-06-13 15:12:00,
2013-06-13 11:22:00,62.0,61.0,29.43,South,187,6.0,12.0,98,0.00,,,0.63,,2013-06-13 15:22:00,
2013-06-13 11:33:00,62.0,61.0,29.43,SSE,160,5.0,10.0,98,0.00,,,0.63,,2013-06-13 15:33:00,
2013-06-13 11:43:00,62.0,61.0,29.43,SSE,160,5.0,10.0,98,0.00,,,0.63,,2013-06-13 15:43:00,
2013-06-13 11:53:00,62.0,61.0,29.42,SSW,205,4.0,9.0,98,0.01,,,0.64,,2013-06-13 15:53:00,
2013-06-13 12:02:00,63.0,62.0,29.41,SSE,155,4.0,7.0,98,0.02,,,0.65,,2013-06-13 16:02:00,
2013-06-13 12:12:00,63.0,62.0,29.41,South,179,5.0,8.0,98,0.06,,,0.69,,2013-06-13 16:12:00,
2013-06-13 12:22:00,63.0,62.0,29.41,South,179,5.0,8.0,98,0.06,,,0.69,,2013-06-13 16:22:00,
2013-06-13 12:33:00,63.0,62.0,29.40,SE,146,1.0,6.0,98,0.12,,,0.75,,2013-06-13 16:33:00,
2013-06-13 12:43:00,63.0,62.0,29.40,South,184,1.0,6.0,98,0.18,,,0.82,,2013-06-13 16:43:00,
2013-06-13 12:53:00,63.0,62.0,29.40,South,184,1.0,6.0,98,0.18,,,0.82,,2013-06-13 16:53:00,
2013-06-13 13:02:00,63.0,62.0,29.39,NNW,333,2.0,7.0,98,0.22,,,0.87,,2013-06-13 17:02:00,
2013-06-13 13:12:00,64.0,63.0,29.39,SE,143,2.0,9.0,98,0.21,,,0.90,,2013-06-13 17:12:00,
2013-06-13 13:24:00,64.0,63.0,29.39,SE,143,2.0,9.0,98,0.21,,,0.90,,2013-06-13 17:24:00,
2013-06-13 13:33:00,64.0,63.0,29.39,NNW,346,3.0,7.0,97,0.15,,,0.90,,2013-06-13 17:33:00,
2013-06-13 13:43:00,65.0,64.0,29.39,SSE,150,2.0,8.0,96,0.07,,,0.90,,2013-06-13 17:43:00,
2013-06-13 13:53:00,65.0,64.0,29.39,SSE,150,2.0,8.0,96,0.07,,,0.90,,2013-06-13 17:53:00,
2013-06-13 14:02:00,64.0,63.0,29.39,North,352,1.0,8.0,96,0.03,,,0.90,,2013-06-13 18:02:00,
2013-06-13 14:11:00,64.0,63.0,29.39,North,352,1.0,8.0,96,0.03,,,0.90,,2013-06-13 18:11:00,
2013-06-13 14:22:00,64.0,63.0,29.39,North,4,2.0,6.0,96,0.00,,,0.90,,2013-06-13 18:22:00,
2013-06-13 14:33:00,64.0,63.0,29.39,South,172,1.0,7.0,95,0.00,,,0.90,,2013-06-13 18:33:00,
2013-06-13 14:43:00,64.0,63.0,29.39,WSW,257,2.0,7.0,95,0.00,,,0.90,,2013-06-13 18:43:00,
2013-06-13 14:52:00,64.0,63.0,29.39,WSW,257,2.0,7.0,95,0.00,,,0.90,,2013-06-13 18:52:00,
2013-06-13 15:02:00,65.0,63.0,29.40,NW,319,2.0,8.0,94,0.00,,,0.90,,2013-06-13 19:02:00,
2013-06-13 15:11:00,65.0,63.0,29.40,WNW,296,4.0,9.0,94,0.00,,,0.90,,2013-06-13 19:11:00,
2013-06-13 15:22:00,65.0,63.0,29.40,WNW,296,4.0,9.0,94,0.00,,,0.90,,2013-06-13 19:22:00,
2013-06-13 15:33:00,66.0,64.0,29.40,NW,307,4.0,9.0,92,0.00,,,0.90,,2013-06-13 19:33:00,
2013-06-13 15:43:00,66.0,64.0,29.40,NW,319,3.0,10.0,93,0.00,,,0.90,,2013-06-13 19:43:00,
2013-06-13 15:53:00,66.0,64.0,29.40,NW,319,3.0,10.0,93,0.00,,,0.90,,2013-06-13 19:53:00,
2013-06-13 16:02:00,66.0,63.0,29.40,NW,309,7.0,14.0,91,0.00,,,0.90,,2013-06-13 20:02:00,
2013-06-13 16:11:00,66.0,63.0,29.40,NW,309,7.0,14.0,91,0.00,,,0.90,,2013-06-13 20:11:00,
2013-06-13 16:22:00,66.0,64.0,29.40,WNW,293,5.0,10.0,92,0.00,,,0.90,,2013-06-13 20:22:00,
2013-06-13 16:33:00,65.0,63.0,29.41,NW,304,5.0,13.0,94,0.00,,,0.90,,2013-06-13 20:33:00,
2013-06-13 16:44:00,65.0,63.0,29.41,NW,304,5.0,13.0,94,0.00,,,0.90,,2013-06-13 20:44:00,
2013-06-13 16:53:00,65.0,64.0,29.41,NNW,340,6.0,12.0,95,0.00,,,0.90,,2013-06-13 20:53:00,
2013-06-13 17:02:00,64.0,63.0,29.41,NW,321,5.0,10.0,97,0.00,,,0.90,,2013-06-13 21:02:00,
2013-06-13 17:11:00,64.0,63.0,29.41,NW,321,5.0,10.0,97,0.00,,,0.90,,2013-06-13 21:11:00,
2013-06-13 17:22:00,64.0,63.0,29.42,NNW,347,10.0,19.0,96,0.00,,,0.90,,2013-06-13 21:22:00,
2013-06-13 17:34:00,63.0,61.0,29.43,West,264,7.0,20.0,94,0.00,,,0.90,,2013-06-13 21:34:00,
2013-06-13 17:43:00,61.0,59.0,29.44,NW,321,8.0,24.0,94,0.00,,,0.90,,2013-06-13 21:43:00,
2013-06-13 17:52:00,61.0,59.0,29.44,NW,321,8.0,24.0,94,0.00,,,0.90,,2013-06-13 21:52:00,
2013-06-13 18:02:00,61.0,59.0,29.45,NW,323,12.0,20.0,93,0.00,,,0.90,,2013-06-13 22:02:00,
2013-06-13 18:11:00,60.0,58.0,29.45,NW,311,11.0,23.0,94,0.00,,,0.90,,2013-06-13 22:11:00,
2013-06-13 18:22:00,60.0,58.0,29.45,NW,311,11.0,23.0,94,0.00,,,0.90,,2013-06-13 22:22:00,
2013-06-13 18:33:00,60.0,59.0,29.46,WNW,298,10.0,15.0,95,0.00,,,0.90,,2013-06-13 22:33:00,
2013-06-13 18:43:00,59.0,58.0,29.47,NNW,329,10.0,26.0,95,0.01,,,0.91,,2013-06-13 22:43:00,
2013-06-13 18:52:00,59.0,58.0,29.47,NNW,329,10.0,26.0,95,0.01,,,0.91,,2013-06-13 22:52:00,
2013-06-13 19:02:00,59.0,58.0,29.49,NW,319,7.0,20.0,96,0.01,,,0.91,,2013-06-13 23:02:00,
2013-06-13 19:11:00,59.0,58.0,29.49,NW,319,7.0,20.0,96,0.01,,,0.91,,2013-06-13 23:11:00,
2013-06-13 19:22:00,58.0,57.0,29.49,WNW,290,8.0,21.0,96,0.01,,,0.91,,2013-06-13 23:22:00,
2013-06-13 19:32:00,57.0,56.0,29.51,NNW,338,7.0,19.0,97,0.01,,,0.91,,2013-06-13 23:32:00,
2013-06-13 19:43:00,57.0,56.0,29.52,NNW,330,5.0,17.0,97,0.00,,,0.91,,2013-06-13 23:43:00,
2013-06-13 19:52:00,57.0,56.0,29.52,NNW,330,5.0,17.0,97,0.00,,,0.91,,2013-06-13 23:52:00,
2013-06-13 20:02:00,57.0,56.0,29.53,NW,323,7.0,15.0,98,0.00,,,0.91,,2013-06-14 00:02:00,
2013-06-13 20:12:00,57.0,56.0,29.54,NNW,333,7.0,14.0,97,0.00,,,0.91,,2013-06-14 00:12:00,
2013-06-13 20:22:00,57.0,56.0,29.54,NNW,333,7.0,14.0,97,0.00,,,0.91,,2013-06-14 00:22:00,
2013-06-13 20:34:00,57.0,56.0,29.55,NNW,332,5.0,16.0,97,0.00,,,0.91,,2013-06-14 00:34:00,
2013-06-13 20:43:00,56.0,55.0,29.56,North,3,10.0,19.0,96,0.00,,,0.91,,2013-06-14 00:43:00,
2013-06-13 20:53:00,56.0,55.0,29.56,North,3,10.0,19.0,96,0.00,,,0.91,,2013-06-14 00:53:00,
2013-06-13 21:01:00,56.0,55.0,29.55,NW,316,6.0,12.0,97,0.00,,,0.91,,2013-06-14 01:01:00,
2013-06-13 21:11:00,56.0,55.0,29.57,NNW,329,6.0,12.0,98,0.00,,,0.91,,2013-06-14 01:11:00,
2013-06-13 21:22:00,56.0,55.0,29.57,NNW,329,6.0,12.0,98,0.00,,,0.91,,2013-06-14 01:22:00,
2013-06-13 21:33:00,55.0,54.0,29.58,NNW,329,6.0,12.0,98,0.00,,,0.91,,2013-06-14 01:33:00,
2013-06-13 21:43:00,55.0,54.0,29.59,North,353,4.0,12.0,98,0.00,,,0.91,,2013-06-14 01:43:00,
2013-06-13 21:52:00,55.0,54.0,29.59,North,353,4.0,12.0,98,0.00,,,0.91,,2013-06-14 01:52:00,
2013-06-13 22:02:00,55.0,54.0,29.60,NNW,335,5.0,11.0,98,0.00,,,0.91,,2013-06-14 02:02:00,
2013-06-13 22:11:00,55.0,54.0,29.60,NNW,328,5.0,14.0,98,0.00,,,0.91,,2013-06-14 02:11:00,
2013-06-13 22:22:00,55.0,54.0,29.60,NNW,328,5.0,14.0,98,0.00,,,0.91,,2013-06-14 02:22:00,
2013-06-13 22:33:00,55.0,54.0,29.62,NNW,330,4.0,20.0,98,0.00,,,0.91,,2013-06-14 02:33:00,
2013-06-13 22:43:00,55.0,54.0,29.63,North,349,4.0,10.0,98,0.00,,,0.91,,2013-06-14 02:43:00,
2013-06-13 22:52:00,55.0,54.0,29.63,North,349,4.0,10.0,98,0.00,,,0.91,,2013-06-14 02:52:00,
2013-06-13 23:02:00,54.0,53.0,29.63,NNW,345,8.0,18.0,98,0.00,,,0.91,,2013-06-14 03:02:00,
2013-06-13 23:12:00,54.0,53.0,29.63,NNW,345,8.0,18.0,98,0.00,,,0.91,,2013-06-14 03:12:00,
2013-06-13 23:22:00,54.0,53.0,29.64,NW,315,8.0,20.0,98,0.00,,,0.91,,2013-06-14 03:22:00,
2013-06-13 23:34:00,54.0,53.0,29.64,NNW,327,9.0,18.0,97,0.00,,,0.91,,2013-06-14 03:34:00,
2013-06-13 23:43:00,53.0,52.0,29.64,NW,314,7.0,13.0,98,0.00,,,0.91,,2013-06-14 03:43:00,
2013-06-13 23:53:00,53.0,52.0,29.64,NW,314,7.0,13.0,98,0.00,,,0.91,,2013-06-14 03:53:00,